CZ-6A DEB, 54953

Orbit data source: Space-Track

CZ-6A DEB, 54953 is space debris in SSO originally from a launch on Fri, 11 Nov 2022 UTC launched from the Taiyaun Space Center, China (TSC). Debris objects in space refer to the collection of defunct objects orbiting the Earth. Examples of debris include non-operational satellites, rocket bodies, and fragments generated from explosions, collisions, or faulty payload assembly.

Loading next visibility...
Identifier
54953, 2022-151SS
Orbit
SSO
Country
Flag of CNCN / PRC
Related business
Manufacturer
SAST
Mission
Spacecraft
Bus & Motor
Unknown
Mass
Unknown
Launch date (UTC)
2022-11-11 (4 years ago)
Launch vehicle
Unknown
Launch site
Taiyaun Space Center, China (TSC)
Object type
Payload
Rocket body
Debris
Shape & HBR
Unknown shape, 0.1 m
Radar Cross Section
Medium (>0.1 m² and <1 m²)

Expand to show TLE details & history
Last TLE update: 2 days ago

TLE from 2 days ago
0 CZ-6A DEB
1 54953U 22151SS  26174.07394322  .00002363  00000-0  53562-3 0  9995
2 54953  98.5449 219.7587 0078134 257.9368 101.3065 14.55239248190503
Epoch: 2026-06-23T01:46Z
TLE epoch observation values (Epoch: 2026-06-23T01:46:28.694Z)
Latitude
0.00002°
Longitude
-78.1116°
Altitude
722.829 km
Speed
7.488 km/s
True Right ascension
14h 39m 02s
True Declination
0° 00' 00"
Sunlit
Object was in full shadow at epoch
Visualization orbit readout
Latitude
Unknown
Longitude
Unknown
Altitude
Unknown
Speed
Unknown
Apparent Right ascension
Unknown
Apparent Declination
Unknown
Sunlit
N/A
Visualization observer readout
Local Sidereal Time
03:28:35
Azimuth
Unknown
Elevation
Unknown
Doppler factor
Unknown
Orbital elements
Apogee altitude
761.04 km
Perigee altitude
650.343 km
Semi-major axis
7,083.828 km
Eccentricity
0.00781
Inclination
98.5449°
RAAN
219.7587°
Arg. of periapsis
257.9368°
True anomaly
102.18276°
Mean anomaly
101.3065°
Eccentric anomaly
101.7448°
Mean motion
3.64033 °/min
Orbital period
98.89 mins
BSTAR
0.00053562
Loading maneuver chart data...
Computing Atmospheric mass density...
Loading historical data...
Loading historical data...
Loading historical data...
Loading historical data...
Loading historical data...
Loading historical data...
Loading historical data...

Documentation

Showing up to 5 results
|